Location: Berduj
(43.0019°N, 22.3781°E)
Time: 05:14:24
(UTC+00:00)

CSL-04 Debris - Pass Details

Date: 19 October 2019
Orbit: 827 x 848 km, 99.0° (Epoch: 11 November)

Event Time Altitude Azimuth Distance (km) Brightness Sun altitude
Rises 16:44:42 0° 158° (SSE) 3,375 7.1 -12.2°
Reaches altitude 10° 16:47:03 10° 157° (SSE) 2,448 6.4 -12.6°
Maximum altitude 16:52:28 75° 74° (ENE) 877 4.1 -13.6°
Drops below altitude 10° 16:57:57 10° 349° (N) 2,477 6.8 -14.6°
Sets 17:00:20 0° 348° (NNW) 3,418 7.5 -15.0°
